[[{"header":{"parameterUnit":"m.s-1","parameterCategory":2,"la1":30.2991,"la2":30.254,"lo1":-89.0895,"lo2":-89.0444,"dx":0.0017,"dy":0.0017,"nx":28,"ny":28,"refTime":"2023-01-20T09:00:00:Z","depth":"0","parameterNumber":2,"parameterNumberName":"U-component_of_CURRENTS"},"data":[0,0,0,0,0,0,0,0,0,0,0,0,0,0,0,0,0,0,0,0,0,0,0,0,0,0,0,0,0,0,0,0,0,0,0,0,0,0,0,0,0,0,0,0,0,0,0,0,0,0,0,0,0,0,0,0,0,0,0.4475,0.4476,0,0.4544,0.4545,0.4545,0.4536,0.4535,0.4535,0.4534,0.4553,0.4554,0.4556,0,0,0,0,0,0,0,0,0,0,0,0,0,0.4324,0.4326,0.4475,0.4476,0.4477,0.4544,0.4545,0.4545,0.4536,0.4535,0.4535,0.4534,0.4553,0.4554,0.4556,0,0,0,0,0,0,0,0,0,0,0,0,0,0.4387,0.4327,0.4474,0.4484,0.4486,0.4544,0.4545,0.4546,0.4536,0.4535,0.4534,0.4533,0.4552,0.4554,0.4556,0.4588,0,0,0.4561,0.4562,0,0,0,0,0,0,0,0,0.4383,0.4392,0.4481,0.4484,0.4486,0.4535,0.4499,0.4559,0.4537,0.4512,0.4534,0.4533,0.4546,0.4549,0.4558,0.4589,0.459,0.4561,0.4563,0.4563,0.4564,0,0,0,0,0,0,0,0.4379,0.4389,0.4497,0.4483,0.4486,0.4483,0.449,0.451,0.453,0.4514,0.4515,0.4531,0.4546,0.4556,0.4558,0.459,0.4561,0.4563,0.4564,0.4565,0.4707,0.4709,0,0,0,0,0,0,0.4382,0.4385,0.4495,0.45,0.4436,0.4486,0.4494,0.4516,0.4531,0.4534,0.4532,0.453,0.4554,0.4556,0.4559,0.4644,0.4563,0.4565,0.4566,0.4704,0.4707,0.471,0,0,0,0,0,0,0.4379,0.4392,0.4492,0.4447,0.446,0.4491,0.4515,0.4518,0.4535,0.4545,0.4546,0.4546,0.4553,0.4556,0.4606,0.4642,0.4566,0.4567,0.4701,0.4705,0.4709,0.4783,0,0,0,0,0,0,0.4374,0.439,0.4413,0.4448,0.4463,0.4537,0.4517,0.4521,0.4548,0.4547,0.4558,0.4559,0.4552,0.4604,0.4608,0.4643,0.4569,0.4697,0.4703,0.4708,0.4777,0.4789,0.48,0,0,0,0,0,0.4369,0.4392,0.4414,0.4428,0.4492,0.4539,0.4546,0.456,0.455,0.4568,0.4588,0.4558,0.4639,0.4608,0.4612,0.4648,0.4695,0.4701,0.4707,0.4772,0.4787,0.4799,0,0,0,0,0,0,0.4315,0.4396,0.4419,0.4461,0.4507,0.4539,0.4559,0.457,0.4599,0.4596,0.4596,0.4599,0.4658,0.465,0.4616,0.4708,0.4661,0.4669,0.471,0.4723,0.4734,0.4745,0.457,0,0,0,0,0,0.4325,0.4372,0.4438,0.4467,0.4498,0.4533,0.4556,0.4569,0.4599,0.4609,0.4628,0.4651,0.4688,0.4701,0.473,0.4778,0.4792,0.4806,0.4817,0.4826,0.4841,0.4913,0.4932,0.4731,0.473,0.473,0,0,0.4302,0.4359,0.4378,0.4462,0.4495,0.4547,0.4542,0.458,0.4623,0.4608,0.467,0.4694,0.4713,0.4773,0.4797,0.4768,0.4892,0.4834,0.4841,0.4851,0.4921,0.4941,0.4958,0.4735,0.4734,0.4733,0,0,0.429,0.4345,0.4389,0.444,0.4516,0.4551,0.4569,0.4626,0.4655,0.4719,0.473,0.4785,0.4824,0.4862,0.4879,0.4972,0.4954,0.4973,0.503,0.5101,0.5118,0.5133,0.5174,0.5192,0.4971,0.4972,0.4972,0,0.426,0.4334,0.4402,0.4463,0.4505,0.4558,0.4605,0.4653,0.4719,0.4761,0.4745,0.4861,0.4871,0.4964,0.4996,0.4997,0.5023,0.4972,0.5115,0.513,0.5144,0.5182,0.5201,0.4976,0.4975,0.4975,0.4974,0,0.4291,0.4353,0.4379,0.4487,0.4543,0.4585,0.4673,0.4738,0.4778,0.4824,0.4929,0.4968,0.5032,0.505,0.5048,0.5162,0.5144,0.5124,0.5075,0.5169,0.5203,0.5222,0.4982,0.498,0.4979,0.4978,0,0,0.42,0.4369,0.4374,0.4433,0.4558,0.4597,0.4704,0.4812,0.4881,0.4955,0.5043,0.5127,0.5152,0.5177,0.5195,0.5258,0.5375,0.5235,0.5237,0.5267,0.552,0.5436,0.5447,0.538,0.5383,0.5386,0.5502,0,0.4198,0.4305,0.4398,0.4484,0.4548,0.4653,0.4743,0.4848,0.4941,0.5044,0.5119,0.5201,0.5199,0.5233,0.5305,0.5369,0.5428,0.5344,0.5434,0.5436,0.5343,0.5468,0.5348,0.5435,0.552,0.5523,0.5525,0,0.4195,0.4277,0.4365,0.4508,0.4543,0.4607,0.4767,0.4857,0.5028,0.5096,0.5213,0.5273,0.5405,0.5365,0.5536,0.5485,0.5512,0.5545,0.555,0.5459,0.5387,0.5359,0.5465,0.5367,0.5553,0.5551,0.5549,0,0.4099,0.4243,0.4312,0.4358,0.4533,0.4597,0.4691,0.4867,0.4955,0.5139,0.522,0.5372,0.5465,0.5544,0.5633,0.5594,0.5797,0.5742,0.569,0.5683,0.5593,0.5571,0.5606,0.5846,0.5846,0.5846,0.5846,0,0.4063,0.4113,0.4272,0.4309,0.439,0.4535,0.4642,0.4772,0.4949,0.5055,0.5231,0.5344,0.552,0.5653,0.5684,0.5766,0.5844,0.5735,0.5726,0.5613,0.5593,0.5508,0.5459,0.585,0.5849,0.5848,0.5848,0,0.396,0.406,0.4143,0.4307,0.4352,0.441,0.4588,0.4676,0.4867,0.502,0.508,0.5361,0.5547,0.5692,0.585,0.584,0.5761,0.5894,0.5739,0.5709,0.5517,0.5477,0.5269,0.5108,0.5854,0.5853,0.5852,0,0.3924,0.3959,0.4102,0.4145,0.4221,0.4326,0.4403,0.4599,0.4702,0.5012,0.5076,0.5342,0.5502,0.5737,0.5805,0.588,0.571,0.5765,0.5659,0.5522,0.5473,0.522,0.5081,0.5575,0.5572,0.5569,0.5567,0,0.3864,0.391,0.3983,0.4064,0.4137,0.421,0.4342,0.4401,0.4643,0.4812,0.5043,0.5202,0.5476,0.5558,0.5691,0.5707,0.5517,0.5709,0.5632,0.5322,0.4987,0.4822,0.5464,0.5544,0.5546,0.5548,0.5549,0.555,0.3815,0.3837,0.3931,0.3991,0.4055,0.4104,0.412,0.4279,0.4426,0.4627,0.4866,0.5043,0.5296,0.5492,0.5462,0.5411,0.533,0.531,0.5295,0.5066,0.4831,0.5402,0.542,0.5422,0.5423,0.5424,0.5425,0,0.3774,0.381,0.3862,0.3918,0.3919,0.3995,0.408,0.4075,0.4185,0.4406,0.458,0.4845,0.4961,0.5095,0.5224,0.5085,0.4809,0.4956,0.4623,0.4522,0.5131,0.5043,0.49,0.49,0.49,0.49,0.49,0.49,0.3763,0.3789,0.3805,0.3778,0.3794,0.3745,0.3753,0.3777,0.3883,0.4012,0.4153,0.4343,0.4764,0.5043,0.4995,0.4867,0.4495,0.43,0.4221,0.4752,0.4784,0.4814,0.4721,0.4513,0.4512,0.3442,0.3435,0.3429]},{"header":{"parameterUnit":"m.s-1","parameterCategory":2,"la1":30.2991,"la2":30.254,"lo1":-89.0895,"lo2":-89.0444,"dx":0.0017,"dy":0.0017,"nx":28,"ny":28,"refTime":"2023-01-20T09:00:00:Z","depth":"0","parameterNumber":3,"parameterNumberName":"V-component_of_CURRENTS"},"data":[0,0,0,0,0,0,0,0,0,0,0,0,0,0,0,0,0,0,0,0,0,0,0,0,0,0,0,0,0,0,0,0,0,0,0,0,0,0,0,0,0,0,0,0,0,0,0,0,0,0,0,0,0,0,0,0,0,0,-0.0587,-0.0588,0,-0.0662,-0.0663,-0.0664,-0.0724,-0.0725,-0.0725,-0.0726,-0.0871,-0.0875,-0.0878,0,0,0,0,0,0,0,0,0,0,0,0,0,-0.0575,-0.0574,-0.0587,-0.0588,-0.0588,-0.0662,-0.0663,-0.0664,-0.0724,-0.0725,-0.0725,-0.0726,-0.087,-0.0874,-0.0878,0,0,0,0,0,0,0,0,0,0,0,0,0,-0.0608,-0.0574,-0.0587,-0.0627,-0.0631,-0.0662,-0.0663,-0.0664,-0.0724,-0.0725,-0.0725,-0.0726,-0.0869,-0.0874,-0.0879,-0.0894,0,0,-0.0894,-0.0897,0,0,0,0,0,0,0,0,-0.0606,-0.0609,-0.062,-0.0624,-0.0629,-0.0684,-0.0712,-0.0744,-0.0724,-0.0689,-0.0726,-0.0727,-0.0814,-0.0824,-0.0836,-0.0901,-0.0907,-0.0895,-0.0898,-0.09,-0.0901,0,0,0,0,0,0,0,-0.0604,-0.0606,-0.0617,-0.0621,-0.0626,-0.0668,-0.0673,-0.0719,-0.0748,-0.0692,-0.0697,-0.0704,-0.0817,-0.0831,-0.084,-0.0909,-0.0895,-0.0899,-0.0902,-0.0904,-0.1008,-0.1008,0,0,0,0,0,0,-0.0588,-0.0604,-0.0615,-0.062,-0.0619,-0.0667,-0.0673,-0.0666,-0.0746,-0.0759,-0.0703,-0.0706,-0.0822,-0.0834,-0.0846,-0.0856,-0.09,-0.0905,-0.0908,-0.1008,-0.1008,-0.1007,0,0,0,0,0,0,-0.0587,-0.0587,-0.0612,-0.0614,-0.062,-0.0666,-0.0658,-0.0667,-0.0678,-0.0753,-0.0767,-0.0704,-0.0823,-0.0839,-0.0879,-0.0863,-0.0907,-0.0912,-0.1008,-0.1008,-0.1008,-0.0886,0,0,0,0,0,0,-0.0586,-0.0586,-0.0581,-0.0612,-0.0619,-0.0613,-0.0658,-0.0668,-0.0681,-0.0686,-0.0759,-0.0774,-0.0825,-0.0871,-0.0884,-0.0871,-0.0916,-0.1009,-0.1008,-0.1008,-0.0891,-0.0882,-0.0874,0,0,0,0,0,-0.0585,-0.0557,-0.058,-0.0582,-0.0608,-0.0612,-0.0619,-0.0657,-0.068,-0.0672,-0.0728,-0.0771,-0.0878,-0.0875,-0.089,-0.0878,-0.1009,-0.1008,-0.1008,-0.0894,-0.0883,-0.0874,0,0,0,0,0,0,-0.0529,-0.0562,-0.0587,-0.0567,-0.0586,-0.0622,-0.0617,-0.0646,-0.0683,-0.0691,-0.0766,-0.0784,-0.0816,-0.0865,-0.086,-0.0909,-0.0951,-0.0954,-0.086,-0.085,-0.0842,-0.0799,-0.092,0,0,0,0,0,-0.0519,-0.0514,-0.055,-0.0528,-0.0538,-0.0579,-0.0588,-0.0611,-0.0646,-0.0663,-0.0716,-0.0776,-0.0825,-0.085,-0.0901,-0.0923,-0.095,-0.0928,-0.092,-0.0912,-0.0889,-0.0924,-0.0915,-0.1005,-0.1005,-0.1005,0,0,-0.0489,-0.0506,-0.0503,-0.0519,-0.0538,-0.0526,-0.0585,-0.0583,-0.0573,-0.0674,-0.0679,-0.0749,-0.0826,-0.0852,-0.0871,-0.089,-0.0898,-0.0911,-0.0904,-0.0884,-0.0922,-0.0913,-0.0905,-0.1005,-0.1005,-0.1005,0,0,-0.0411,-0.0442,-0.0413,-0.0425,-0.0448,-0.0478,-0.0473,-0.0509,-0.0528,-0.0548,-0.062,-0.0672,-0.0744,-0.0791,-0.0827,-0.0804,-0.0855,-0.0829,-0.0749,-0.0782,-0.0774,-0.0768,-0.0769,-0.0764,-0.0823,-0.0822,-0.0822,0,-0.0368,-0.0345,-0.0401,-0.0372,-0.0372,-0.0448,-0.041,-0.0436,-0.048,-0.0487,-0.0533,-0.0639,-0.071,-0.0739,-0.0736,-0.0781,-0.08,-0.0776,-0.0768,-0.0763,-0.0758,-0.0761,-0.0756,-0.0816,-0.0817,-0.0818,-0.0818,0,-0.0274,-0.026,-0.0237,-0.0236,-0.0244,-0.0222,-0.027,-0.0278,-0.0325,-0.036,-0.0404,-0.0509,-0.0564,-0.0609,-0.0667,-0.0673,-0.0694,-0.0753,-0.0783,-0.0741,-0.0748,-0.0745,-0.0808,-0.081,-0.0812,-0.0813,0,0,-0.0153,-0.017,-0.0157,-0.0141,-0.0173,-0.0157,-0.0148,-0.0159,-0.0132,-0.0221,-0.0201,-0.0321,-0.0386,-0.043,-0.0523,-0.0567,-0.0556,-0.0634,-0.0639,-0.0615,-0.0601,-0.0608,-0.0607,-0.0614,-0.0614,-0.0613,-0.061,0,-0.0057,0.0016,-0.0023,0.0048,0.0074,0.0012,0.0035,0.0013,-0.0029,-0.003,-0.0158,-0.0187,-0.0316,-0.0342,-0.0404,-0.0516,-0.0547,-0.0549,-0.0663,-0.0665,-0.0662,-0.0604,-0.0575,-0.057,-0.0608,-0.0608,-0.0608,0,0.0051,0.0079,0.0161,0.0181,0.0191,0.0225,0.0248,0.026,0.0221,0.0189,0.0121,0.0019,-0.0061,-0.0182,-0.0331,-0.0325,-0.0439,-0.0539,-0.0543,-0.0587,-0.0668,-0.0627,-0.0565,-0.0835,-0.0605,-0.0605,-0.0605,0,0.016,0.0212,0.0279,0.0289,0.0301,0.034,0.035,0.0337,0.0377,0.0334,0.0361,0.0214,0.0183,-0.0002,-0.0212,-0.0266,-0.0366,-0.0469,-0.058,-0.0581,-0.0596,-0.0599,-0.0791,-0.056,-0.056,-0.056,-0.056,0,0.0269,0.0328,0.0344,0.0387,0.0491,0.0458,0.0566,0.0555,0.0575,0.0666,0.0492,0.0538,0.0227,0.0118,-0.0117,-0.0308,-0.0287,-0.0534,-0.0576,-0.0552,-0.0552,-0.0822,-0.098,-0.056,-0.056,-0.056,-0.056,0,0.0373,0.038,0.0468,0.0514,0.0545,0.0624,0.0715,0.0792,0.0795,0.0915,0.0912,0.0808,0.0672,0.0367,0.0098,-0.0138,-0.0507,-0.0441,-0.0375,-0.041,-0.0798,-0.0948,-0.1156,-0.1284,-0.0565,-0.0565,-0.0565,0,0.0424,0.0481,0.0579,0.0652,0.0683,0.0792,0.0875,0.0901,0.1002,0.1106,0.1189,0.1093,0.1076,0.0678,0.0222,-0.0168,-0.0459,-0.0412,-0.0533,-0.0785,-0.0986,-0.1104,-0.1205,-0.0497,-0.0497,-0.0497,-0.0496,0,0.0525,0.0567,0.0643,0.0795,0.0905,0.1033,0.1164,0.1281,0.1358,0.1489,0.1652,0.1652,0.1275,0.0903,0.0337,0.0025,-0.0604,-0.0416,-0.0704,-0.0956,-0.1069,-0.122,-0.052,-0.0493,-0.0493,-0.0493,-0.0494,-0.0494,0.061,0.069,0.0804,0.0951,0.1087,0.1275,0.1421,0.1592,0.1812,0.2047,0.2012,0.2091,0.1509,0.0742,0.0285,-0.0547,-0.0587,-0.0816,-0.0973,-0.1065,-0.1211,-0.0482,-0.0498,-0.0499,-0.0499,-0.0499,-0.05,0,0.0711,0.0803,0.0947,0.1139,0.1316,0.1361,0.1616,0.1794,0.2108,0.2312,0.2466,0.2244,0.1515,0.0731,-0.0373,-0.0982,-0.1236,-0.1331,-0.1517,-0.1595,-0.0959,-0.0983,-0.1072,-0.1071,-0.1071,-0.1071,-0.1071,-0.107,0.0772,0.0925,0.0999,0.1303,0.1448,0.1709,0.1873,0.2159,0.2367,0.266,0.2737,0.2726,0.2146,0.0165,-0.1233,-0.158,-0.1998,-0.2081,-0.2317,-0.1921,-0.1887,-0.1854,-0.1915,-0.2198,-0.2199,-0.2877,-0.2884,-0.2889]}],[{"header":{"parameterUnit":"m.s-1","parameterCategory":2,"la1":30.2991,"la2":30.254,"lo1":-89.0895,"lo2":-89.0444,"dx":0.0017,"dy":0.0017,"nx":28,"ny":28,"refTime":"2023-01-20T09:00:00:Z","depth":"2","parameterNumber":2,"parameterNumberName":"U-component_of_CURRENTS"},"data":[0,0,0,0,0,0,0,0,0,0,0,0,0,0,0,0,0,0,0,0,0,0,0,0,0,0,0,0,0,0,0,0,0,0,0,0,0,0,0,0,0,0,0,0,0,0,0,0,0,0,0,0,0,0,0,0,0,0,0.3568,0.3568,0,0.3634,0.3636,0.3637,0.3692,0.3692,0.3692,0.3692,0.3713,0.3713,0.3714,0,0,0,0,0,0,0,0,0,0,0,0,0,0.3478,0.348,0.3568,0.3568,0.3568,0.3634,0.3636,0.3637,0.3692,0.3692,0.3692,0.3692,0.3712,0.3713,0.3714,0,0,0,0,0,0,0,0,0,0,0,0,0,0.3536,0.3481,0.3568,0.3597,0.3599,0.3634,0.3636,0.3638,0.3692,0.3692,0.3692,0.3692,0.3712,0.3713,0.3714,0.3728,0,0,0.3718,0.3718,0,0,0,0,0,0,0,0,0.3533,0.3541,0.3593,0.3595,0.3598,0.3647,0.3611,0.3663,0.3693,0.3667,0.3692,0.3691,0.3681,0.3685,0.3711,0.3729,0.3729,0.3718,0.3719,0.3719,0.3719,0,0,0,0,0,0,0,0.3529,0.3538,0.3603,0.3592,0.3596,0.3602,0.3611,0.3622,0.3681,0.3669,0.3671,0.3664,0.3683,0.371,0.3712,0.373,0.3718,0.3719,0.372,0.372,0.387,0.3873,0,0,0,0,0,0,0.3504,0.3535,0.3601,0.3604,0.3554,0.3603,0.3614,0.3639,0.3682,0.3686,0.3664,0.3666,0.3708,0.371,0.3712,0.38,0.3719,0.372,0.3721,0.3866,0.387,0.3874,0,0,0,0,0,0,0.3503,0.3511,0.3598,0.3562,0.3572,0.3604,0.3632,0.364,0.3685,0.3677,0.3682,0.3702,0.3708,0.3711,0.3753,0.3798,0.3721,0.3722,0.3863,0.3868,0.3872,0.393,0,0,0,0,0,0,0.3501,0.3511,0.3526,0.3561,0.3573,0.3644,0.3632,0.3641,0.3676,0.368,0.3711,0.3712,0.3708,0.3752,0.3755,0.3798,0.3722,0.3858,0.3865,0.3871,0.3924,0.3936,0.3947,0,0,0,0,0,0.3498,0.3508,0.3527,0.3534,0.3592,0.3644,0.3654,0.3679,0.3678,0.3717,0.3735,0.3712,0.3794,0.3755,0.3757,0.3802,0.3855,0.3863,0.387,0.3918,0.3934,0.3946,0,0,0,0,0,0,0.3471,0.3515,0.3537,0.3561,0.3612,0.3651,0.3678,0.3693,0.3741,0.3744,0.3741,0.3745,0.3812,0.3802,0.376,0.3871,0.3826,0.3834,0.3862,0.3876,0.3888,0.3909,0.3723,0,0,0,0,0,0.3472,0.3502,0.355,0.3574,0.3607,0.3651,0.3673,0.3697,0.3732,0.3755,0.3775,0.3803,0.3844,0.3853,0.3893,0.393,0.3943,0.397,0.3981,0.399,0.4015,0.4069,0.4086,0.3898,0.3898,0.3898,0,0,0.3459,0.3492,0.3504,0.3571,0.3619,0.3671,0.3669,0.3719,0.376,0.3746,0.3817,0.3849,0.3871,0.3935,0.3962,0.3925,0.4053,0.4,0.4007,0.4027,0.4078,0.4096,0.4112,0.3903,0.3903,0.3902,0,0,0.3457,0.35,0.3533,0.3588,0.3656,0.3689,0.3709,0.3774,0.3812,0.387,0.3889,0.3943,0.3989,0.4024,0.404,0.4136,0.4126,0.4158,0.4211,0.4263,0.4278,0.4291,0.433,0.4346,0.4145,0.4145,0.4145,0,0.3432,0.3494,0.3549,0.361,0.3642,0.3702,0.3749,0.3805,0.3871,0.3912,0.3901,0.4025,0.4032,0.4119,0.4163,0.4159,0.4191,0.4145,0.4275,0.4288,0.4301,0.4337,0.4355,0.4149,0.4149,0.4148,0.4148,0,0.3477,0.3524,0.3556,0.3652,0.3703,0.3754,0.3831,0.3899,0.3936,0.3985,0.4094,0.4125,0.4194,0.4215,0.4214,0.4327,0.4322,0.4292,0.4229,0.4323,0.4356,0.4373,0.4154,0.4153,0.4152,0.4151,0,0,0.34,0.3551,0.3557,0.3611,0.3726,0.3769,0.3864,0.3962,0.4031,0.4108,0.4185,0.4281,0.4317,0.4344,0.4362,0.4408,0.4514,0.4398,0.4399,0.4418,0.4641,0.4586,0.4599,0.4511,0.4515,0.4517,0.4625,0,0.3411,0.3506,0.3581,0.3667,0.3726,0.3821,0.3906,0.4007,0.4088,0.4186,0.4254,0.4346,0.4359,0.44,0.4457,0.4516,0.4565,0.4489,0.4564,0.4567,0.4491,0.4619,0.429,0.4356,0.4642,0.4644,0.4646,0,0.3426,0.3486,0.3566,0.3691,0.3728,0.3795,0.3939,0.4022,0.4183,0.4251,0.4364,0.4426,0.4548,0.4512,0.467,0.463,0.4656,0.468,0.4683,0.4628,0.4545,0.4312,0.4376,0.4674,0.4672,0.467,0.4668,0,0.3345,0.3468,0.3523,0.3569,0.3726,0.3791,0.3881,0.4048,0.4133,0.4305,0.4384,0.4527,0.4605,0.4683,0.4772,0.4733,0.4916,0.4843,0.4818,0.4812,0.4547,0.4513,0.4941,0.4941,0.4941,0.494,0.494,0,0.3318,0.3361,0.3499,0.3534,0.3618,0.3751,0.3862,0.3988,0.4155,0.4264,0.4418,0.4522,0.4661,0.4778,0.4817,0.4902,0.4958,0.4872,0.4856,0.4559,0.4527,0.4806,0.4789,0.4944,0.4943,0.4943,0.4942,0,0.3229,0.3319,0.339,0.3539,0.3587,0.3653,0.3835,0.392,0.4113,0.4253,0.4316,0.4553,0.4727,0.4847,0.4979,0.4963,0.503,0.503,0.468,0.4621,0.4871,0.4856,0.5007,0.5006,0.5006,0.5005,0.5005,0,0.3198,0.3223,0.3357,0.3397,0.347,0.3583,0.3662,0.3867,0.3963,0.4263,0.4318,0.4561,0.47,0.4909,0.4944,0.5019,0.5061,0.4719,0.4578,0.4919,0.4888,0.4873,0.486,0.4241,0.4234,0.4229,0.4225,0,0.313,0.318,0.3246,0.3309,0.3388,0.3464,0.3603,0.3662,0.3907,0.4057,0.4274,0.4418,0.4663,0.4626,0.475,0.4728,0.4683,0.4612,0.5074,0.4286,0.4209,0.4174,0.4183,0.4177,0.4181,0.4185,0.4188,0.419,0.3082,0.3101,0.3179,0.3238,0.3299,0.3345,0.336,0.3509,0.3638,0.3827,0.4069,0.4191,0.4322,0.4362,0.4272,0.4211,0.4512,0.4302,0.4313,0.4331,0.4235,0.4162,0.4102,0.4106,0.411,0.4113,0.4116,0,0.3011,0.3059,0.3102,0.3159,0.3146,0.3234,0.3309,0.329,0.3363,0.3593,0.3758,0.3603,0.3646,0.3748,0.3618,0.3655,0.3552,0.3479,0.3311,0.3368,0.3416,0.3263,0.2878,0.2873,0.2868,0.2863,0,0,0.2989,0.3,0.3023,0.2999,0.302,0.296,0.296,0.296,0.3058,0.3103,0.3175,0.351,0.3695,0.3237,0.3214,0.3016,0.3138,0.2898,0.3917,0.3781,0.382,0.3951,0.379,0,0,0,0,0]},{"header":{"parameterUnit":"m.s-1","parameterCategory":2,"la1":30.2991,"la2":30.254,"lo1":-89.0895,"lo2":-89.0444,"dx":0.0017,"dy":0.0017,"nx":28,"ny":28,"refTime":"2023-01-20T09:00:00:Z","depth":"2","parameterNumber":3,"parameterNumberName":"V-component_of_CURRENTS"},"data":[0,0,0,0,0,0,0,0,0,0,0,0,0,0,0,0,0,0,0,0,0,0,0,0,0,0,0,0,0,0,0,0,0,0,0,0,0,0,0,0,0,0,0,0,0,0,0,0,0,0,0,0,0,0,0,0,0,0,0.0069,0.0068,0,-0.0022,-0.0024,-0.0025,-0.0111,-0.0112,-0.0112,-0.0113,-0.0249,-0.0252,-0.0256,0,0,0,0,0,0,0,0,0,0,0,0,0,0.0088,0.0088,0.0069,0.0068,0.0068,-0.0022,-0.0024,-0.0026,-0.0111,-0.0112,-0.0112,-0.0113,-0.0248,-0.0252,-0.0256,0,0,0,0,0,0,0,0,0,0,0,0,0,0.0041,0.0088,0.0069,0.0018,0.0013,-0.0022,-0.0024,-0.0026,-0.0111,-0.0112,-0.0113,-0.0113,-0.0247,-0.0252,-0.0256,-0.0267,0,0,-0.0271,-0.0273,0,0,0,0,0,0,0,0,0.0044,0.004,0.0026,0.0022,0.0016,-0.0052,-0.0067,-0.0107,-0.0111,-0.0069,-0.0113,-0.0114,-0.0183,-0.0193,-0.0215,-0.0274,-0.028,-0.0271,-0.0274,-0.0276,-0.0277,0,0,0,0,0,0,0,0.0048,0.0043,0.0027,0.0026,0.002,-0.0028,-0.0035,-0.0076,-0.0125,-0.0073,-0.0078,-0.008,-0.0187,-0.0211,-0.0219,-0.0282,-0.0271,-0.0275,-0.0278,-0.028,-0.0381,-0.0381,0,0,0,0,0,0,0.0075,0.0047,0.003,0.0025,0.0034,-0.0027,-0.0035,-0.0033,-0.0124,-0.0137,-0.0079,-0.0083,-0.0202,-0.0214,-0.0224,-0.0237,-0.0276,-0.028,-0.0283,-0.0382,-0.0381,-0.0381,0,0,0,0,0,0,0.0076,0.0075,0.0034,0.0038,0.003,-0.0025,-0.0023,-0.0035,-0.006,-0.0127,-0.0142,-0.0091,-0.0204,-0.0218,-0.0255,-0.0243,-0.0282,-0.0286,-0.0382,-0.0382,-0.0381,-0.0266,0,0,0,0,0,0,0.0077,0.0075,0.0088,0.004,0.0031,0.0023,-0.0022,-0.0036,-0.0056,-0.0063,-0.0142,-0.0156,-0.0205,-0.0248,-0.026,-0.025,-0.029,-0.0382,-0.0382,-0.0381,-0.027,-0.0262,-0.0255,0,0,0,0,0,0.0078,0.0103,0.0089,0.0087,0.0049,0.0025,0.0015,-0.0031,-0.0056,-0.0059,-0.0112,-0.0154,-0.0256,-0.0251,-0.0265,-0.0257,-0.0382,-0.0382,-0.0381,-0.0273,-0.0264,-0.0256,0,0,0,0,0,0,0.0114,0.0096,0.0079,0.0097,0.0068,0.0013,0.0008,-0.0023,-0.0069,-0.0076,-0.0147,-0.0164,-0.0197,-0.0243,-0.0235,-0.0289,-0.0328,-0.0331,-0.0241,-0.0233,-0.0225,-0.0196,-0.0294,0,0,0,0,0,0.0133,0.0148,0.0112,0.0127,0.0114,0.0061,0.0046,0.0018,-0.0026,-0.0048,-0.0103,-0.0161,-0.0207,-0.023,-0.0282,-0.0301,-0.0346,-0.031,-0.0302,-0.0295,-0.0283,-0.0337,-0.0333,-0.0381,-0.0381,-0.0381,0,0,0.015,0.0145,0.0152,0.0136,0.0105,0.0105,0.0048,0.0034,0.0037,-0.0054,-0.0074,-0.0138,-0.0209,-0.0237,-0.0255,-0.0271,-0.0305,-0.0295,-0.0288,-0.028,-0.0337,-0.0332,-0.0327,-0.0381,-0.0381,-0.0381,0,0,0.0198,0.0186,0.0212,0.0195,0.0171,0.0143,0.0144,0.0093,0.0069,0.0047,-0.0022,-0.0071,-0.0141,-0.0188,-0.022,-0.0202,-0.0268,-0.0226,-0.0158,-0.021,-0.0206,-0.0203,-0.0245,-0.0247,-0.0217,-0.0217,-0.0216,0,0.0224,0.025,0.0214,0.0229,0.023,0.0167,0.0189,0.0158,0.0104,0.0093,0.0056,-0.0049,-0.0115,-0.0143,-0.0145,-0.0183,-0.0222,-0.018,-0.0198,-0.0196,-0.0195,-0.0239,-0.0243,-0.0211,-0.0212,-0.0212,-0.0213,0,0.0281,0.0303,0.0313,0.0319,0.0312,0.0321,0.0282,0.0271,0.0234,0.0195,0.0152,0.0061,0.0001,-0.0033,-0.0085,-0.0109,-0.0143,-0.0183,-0.0211,-0.0182,-0.0232,-0.0237,-0.0203,-0.0205,-0.0207,-0.0208,0,0,0.0348,0.0357,0.0364,0.0387,0.0365,0.0372,0.0379,0.0368,0.0384,0.0306,0.0313,0.0208,0.0146,0.0105,0.0027,-0.0022,-0.0057,-0.0091,-0.0097,-0.0116,-0.0165,-0.0189,-0.0199,-0.01,-0.0101,-0.0101,-0.0199,0,0.0408,0.0471,0.0454,0.0514,0.054,0.0499,0.0517,0.0497,0.0462,0.0448,0.0346,0.0309,0.0203,0.0179,0.0111,-0.0015,-0.0068,-0.0026,-0.0205,-0.021,-0.0222,-0.0204,-0.0163,-0.0247,-0.0205,-0.0206,-0.0207,0,0.0472,0.0512,0.0584,0.0627,0.0635,0.0661,0.069,0.0698,0.0653,0.0623,0.0558,0.0467,0.0378,0.0287,0.0097,0.0128,-0.0007,-0.0109,-0.0116,-0.0181,-0.0245,-0.0274,-0.0259,-0.0217,-0.0216,-0.0216,-0.0215,0,0.055,0.0605,0.0677,0.0688,0.072,0.0755,0.0771,0.0753,0.0783,0.0735,0.0743,0.0603,0.0553,0.0367,0.0136,0.0117,-0.007,-0.0125,-0.0272,-0.0275,-0.0296,-0.03,-0.0255,-0.0254,-0.0254,-0.0254,-0.0254,0,0.0628,0.0684,0.0726,0.0767,0.0864,0.0847,0.0935,0.0927,0.0936,0.099,0.0841,0.0851,0.0569,0.042,0.0194,-0.0048,-0.0032,-0.0252,-0.03,-0.0255,-0.0254,-0.0278,-0.0279,-0.0258,-0.0257,-0.0256,-0.0255,0,0.07,0.0722,0.081,0.0873,0.0905,0.0974,0.1057,0.1113,0.1105,0.1178,0.1171,0.1038,0.0847,0.0558,0.026,0.0047,-0.0195,-0.0289,-0.0213,-0.0251,-0.038,-0.0375,-0.0454,-0.0456,-0.0457,-0.0458,-0.0459,0,0.0739,0.0796,0.09,0.0966,0.1003,0.1102,0.1172,0.1198,0.1271,0.1304,0.1354,0.1198,0.1114,0.0665,0.0254,-0.0135,-0.0192,-0.0353,-0.0391,-0.036,-0.04,-0.0392,-0.0385,-0.0375,-0.0375,-0.0375,-0.0376,0,0.0822,0.0858,0.0935,0.1076,0.1171,0.1288,0.1398,0.1485,0.1535,0.1592,0.1649,0.1589,0.1175,0.0779,0.0234,-0.0026,-0.0291,-0.0369,-0.0357,-0.0326,-0.0293,-0.0329,-0.0324,-0.0377,-0.0377,-0.0377,-0.0377,-0.0377,0.0884,0.0954,0.106,0.1195,0.1311,0.1469,0.1584,0.17,0.1838,0.1946,0.1878,0.1804,0.1353,0.0667,0.0187,-0.0312,-0.0289,-0.0459,-0.0456,-0.0453,-0.0422,-0.0392,-0.0488,-0.0489,-0.0489,-0.049,-0.049,0,0.0966,0.1045,0.1171,0.1337,0.1476,0.153,0.1731,0.184,0.2015,0.2099,0.2135,0.1731,0.1275,0.0756,0.0014,-0.0427,-0.0458,-0.0556,-0.0502,-0.0496,-0.0492,-0.0462,-0.0541,-0.0542,-0.0544,-0.0545,0,0,0.1013,0.1144,0.1209,0.1451,0.1572,0.1776,0.1902,0.2055,0.2159,0.2235,0.2201,0.2094,0.1455,0.0915,0.0305,-0.0124,-0.0204,-0.0201,-0.0109,0.0034,0.0043,-0.0384,-0.0324,0,0,0,0,0]}],[{"header":{"parameterUnit":"m.s-1","parameterCategory":2,"la1":30.2991,"la2":30.254,"lo1":-89.0895,"lo2":-89.0444,"dx":0.0017,"dy":0.0017,"nx":28,"ny":28,"refTime":"2023-01-20T09:00:00:Z","depth":"4","parameterNumber":2,"parameterNumberName":"U-component_of_CURRENTS"},"data":[0,0,0,0,0,0,0,0,0,0,0,0,0,0,0,0,0,0,0,0,0,0,0,0,0,0,0,0,0,0,0,0,0,0,0,0,0,0,0,0,0,0,0,0,0,0,0,0,0,0,0,0,0,0,0,0,0,0,0.2075,0.2076,0,0.217,0.2171,0.2172,0.2246,0.2247,0.2248,0.2249,0.2367,0.2369,0.2371,0,0,0,0,0,0,0,0,0,0,0,0,0,0.1942,0.1943,0.2075,0.2077,0.2078,0.217,0.2171,0.2172,0.2246,0.2247,0.2248,0.225,0.2366,0.2369,0.2371,0,0,0,0,0,0,0,0,0,0,0,0,0,0.2011,0.1944,0.2075,0.2129,0.2135,0.217,0.2171,0.2172,0.2246,0.2247,0.2249,0.225,0.2365,0.2368,0.2372,0.2361,0,0,0.2382,0.2383,0,0,0,0,0,0,0,0,0.2007,0.2015,0.2119,0.2125,0.2132,0.2201,0.2167,0.2238,0.2245,0.22,0.2249,0.2251,0.2314,0.2322,0.2331,0.2366,0.2371,0.2382,0.2384,0.2385,0.2386,0,0,0,0,0,0,0,0.2002,0.2012,0.2109,0.2121,0.2128,0.2143,0.2154,0.2181,0.2245,0.2204,0.221,0.2226,0.2318,0.2328,0.2335,0.2373,0.2382,0.2385,0.2387,0.2388,0.2581,0.2584,0,0,0,0,0,0,0.1997,0.2007,0.2106,0.2112,0.2076,0.2144,0.2157,0.2174,0.2245,0.2258,0.2225,0.2229,0.2322,0.2331,0.2339,0.2473,0.2385,0.2388,0.239,0.2578,0.2581,0.2585,0,0,0,0,0,0,0.1993,0.2005,0.2103,0.2064,0.2079,0.2145,0.2164,0.2175,0.224,0.2261,0.2274,0.2284,0.2323,0.2335,0.2418,0.2473,0.239,0.2393,0.2574,0.2579,0.2583,0.265,0,0,0,0,0,0,0.1989,0.2003,0.2031,0.2064,0.2081,0.2164,0.2163,0.2176,0.2246,0.2254,0.2315,0.2324,0.2325,0.2413,0.2421,0.2476,0.2395,0.257,0.2576,0.2582,0.2643,0.2656,0.2667,0,0,0,0,0,0.1984,0.2013,0.2032,0.2045,0.2111,0.2166,0.2177,0.2226,0.2248,0.2288,0.2334,0.2325,0.2457,0.2418,0.2427,0.2484,0.2567,0.2574,0.2581,0.2638,0.2654,0.2667,0,0,0,0,0,0,0.1979,0.2024,0.2046,0.2091,0.2145,0.2181,0.2227,0.2255,0.2321,0.2344,0.2358,0.2372,0.2468,0.2471,0.2428,0.2561,0.2514,0.2523,0.2554,0.2569,0.258,0.2594,0.2398,0,0,0,0,0,0.1986,0.2025,0.2069,0.2117,0.2145,0.2195,0.2231,0.2267,0.2319,0.2352,0.2392,0.2443,0.2493,0.2529,0.257,0.2636,0.2651,0.2684,0.2695,0.2705,0.2726,0.2788,0.2807,0.2608,0.2608,0.2608,0,0,0.1998,0.2033,0.2056,0.212,0.2165,0.2214,0.2222,0.2297,0.2349,0.2353,0.245,0.2489,0.2523,0.2602,0.2645,0.2618,0.2773,0.2714,0.2722,0.2738,0.2798,0.2817,0.2834,0.2613,0.2612,0.2611,0,0,0.2029,0.2076,0.2111,0.2159,0.2237,0.2267,0.2301,0.2368,0.2416,0.2498,0.2523,0.2602,0.2669,0.2709,0.2733,0.2837,0.2835,0.2859,0.2926,0.2987,0.3003,0.3017,0.3066,0.3085,0.2861,0.2861,0.2861,0,0.2043,0.2091,0.2135,0.2184,0.2231,0.2296,0.2349,0.2403,0.2493,0.2539,0.2547,0.2687,0.2718,0.2814,0.286,0.2863,0.2895,0.2861,0.3,0.3015,0.3028,0.3075,0.3094,0.2865,0.2865,0.2865,0.2864,0,0.2086,0.214,0.2174,0.2251,0.231,0.2374,0.2445,0.2522,0.2584,0.263,0.2756,0.2805,0.2891,0.2914,0.2921,0.3045,0.3036,0.3005,0.2955,0.3052,0.3095,0.3114,0.2871,0.287,0.2869,0.2868,0,0,0.2066,0.2176,0.2194,0.2238,0.2352,0.2399,0.2504,0.2601,0.2678,0.2771,0.2872,0.297,0.3016,0.305,0.3078,0.3135,0.326,0.3126,0.3127,0.316,0.3403,0.3204,0.3205,0.3255,0.3258,0.3261,0.3395,0,0.2088,0.217,0.2231,0.233,0.2375,0.2474,0.2562,0.2668,0.2757,0.2872,0.2954,0.3063,0.306,0.3126,0.3188,0.3252,0.3314,0.3227,0.3319,0.3322,0.312,0.3221,0.3273,0.3409,0.3413,0.3416,0.3418,0,0.2096,0.2153,0.224,0.2362,0.2396,0.2476,0.2632,0.2722,0.2886,0.2963,0.3087,0.3156,0.33,0.3266,0.3424,0.3374,0.3412,0.3436,0.3441,0.3245,0.3157,0.3294,0.3452,0.3449,0.3447,0.3444,0.3442,0,0.2033,0.2156,0.2225,0.2269,0.2418,0.2498,0.2598,0.2757,0.2853,0.3044,0.3139,0.3285,0.3399,0.3467,0.355,0.3507,0.3696,0.3627,0.3479,0.3465,0.3572,0.3555,0.3732,0.3732,0.3732,0.3731,0.3731,0,0.2001,0.2064,0.221,0.2249,0.2361,0.2481,0.262,0.2741,0.2924,0.304,0.3197,0.3305,0.3462,0.358,0.3608,0.3613,0.3749,0.3518,0.3493,0.3598,0.3583,0.3585,0.3566,0.3736,0.3735,0.3734,0.3733,0,0.1914,0.2009,0.21,0.2268,0.2333,0.242,0.2635,0.2718,0.2916,0.308,0.3159,0.3381,0.3525,0.3643,0.3776,0.3678,0.3701,0.3667,0.3806,0.3783,0.3413,0.3396,0.3495,0.3489,0.3484,0.348,0.3476,0,0.187,0.1908,0.2097,0.2158,0.2245,0.2393,0.2487,0.27,0.2795,0.309,0.3153,0.3384,0.3503,0.3541,0.3664,0.3707,0.3662,0.3641,0.349,0.3425,0.3393,0.3384,0.3375,0.3469,0.3467,0.3466,0.3465,0,0.1784,0.1873,0.1945,0.2072,0.2183,0.2288,0.2448,0.2506,0.2746,0.2954,0.3083,0.3169,0.3332,0.3421,0.35,0.3511,0.3627,0.3588,0.3596,0.3454,0.3395,0.3366,0.3362,0.3448,0.345,0.3452,0.3453,0,0.1725,0.175,0.1857,0.196,0.2081,0.2139,0.2247,0.2368,0.2496,0.2817,0.2856,0.3094,0.3306,0.3324,0.3389,0.3399,0.3325,0.3187,0.3214,0.3234,0.3084,0.2967,0.289,0,0,0,0,0,0.1643,0.1653,0.1734,0.1822,0.1933,0.2013,0.2193,0.2302,0.2544,0.2568,0.2707,0.2842,0.295,0.3075,0.3032,0.3259,0.3329,0.3192,0.318,0.3354,0.3373,0.3219,0,0,0,0,0,0,0.1582,0.1639,0.1675,0.1685,0.1721,0.1822,0.1928,0.2094,0.2131,0.239,0.2475,0.2666,0.2824,0.2952,0.2977,0.3013,0.2945,0.3345,0.3338,0.3343,0.3361,0.3376,0.3224,0,0,0,0,0]},{"header":{"parameterUnit":"m.s-1","parameterCategory":2,"la1":30.2991,"la2":30.254,"lo1":-89.0895,"lo2":-89.0444,"dx":0.0017,"dy":0.0017,"nx":28,"ny":28,"refTime":"2023-01-20T09:00:00:Z","depth":"4","parameterNumber":3,"parameterNumberName":"V-component_of_CURRENTS"},"data":[0,0,0,0,0,0,0,0,0,0,0,0,0,0,0,0,0,0,0,0,0,0,0,0,0,0,0,0,0,0,0,0,0,0,0,0,0,0,0,0,0,0,0,0,0,0,0,0,0,0,0,0,0,0,0,0,0,0,0.0243,0.0242,0,0.0178,0.0178,0.0177,0.0133,0.0133,0.0133,0.0132,0.0035,0.0033,0.0031,0,0,0,0,0,0,0,0,0,0,0,0,0,0.0268,0.0268,0.0243,0.0242,0.0241,0.0178,0.0178,0.0177,0.0133,0.0133,0.0133,0.0132,0.0036,0.0033,0.003,0,0,0,0,0,0,0,0,0,0,0,0,0,0.0236,0.0268,0.0243,0.0212,0.0208,0.0179,0.0178,0.0177,0.0133,0.0133,0.0132,0.0132,0.0037,0.0033,0.003,0.0019,0,0,0.002,0.0018,0,0,0,0,0,0,0,0,0.0238,0.0235,0.0217,0.0214,0.021,0.0163,0.0151,0.0122,0.0134,0.0162,0.0132,0.0132,0.0075,0.0068,0.0058,0.0015,0.0011,0.0019,0.0017,0.0016,0.0015,0,0,0,0,0,0,0,0.024,0.0237,0.0218,0.0216,0.0212,0.018,0.0176,0.0145,0.0122,0.016,0.0156,0.0149,0.0073,0.0062,0.0056,0.0009,0.0019,0.0016,0.0014,0.0013,-0.0057,-0.0056,0,0,0,0,0,0,0.0251,0.024,0.022,0.0216,0.0222,0.018,0.0175,0.0179,0.0123,0.0114,0.0149,0.0147,0.0068,0.006,0.0052,0.0046,0.0016,0.0013,0.0011,-0.0057,-0.0057,-0.0056,0,0,0,0,0,0,0.0252,0.0251,0.0222,0.0225,0.0219,0.0181,0.0185,0.0178,0.0169,0.0115,0.0106,0.0148,0.0067,0.0057,0.0031,0.0041,0.0011,0.0008,-0.0057,-0.0057,-0.0056,0.0027,0,0,0,0,0,0,0.0254,0.0252,0.0262,0.0227,0.022,0.0213,0.0185,0.0177,0.0165,0.0161,0.0111,0.0101,0.0066,0.0036,0.0028,0.0036,0.0005,-0.0057,-0.0057,-0.0056,0.0024,0.003,0.0036,0,0,0,0,0,0.0255,0.027,0.0263,0.026,0.0234,0.0213,0.0207,0.0177,0.0166,0.0167,0.0133,0.0103,0.0032,0.0034,0.0024,0.0031,-0.0057,-0.0057,-0.0057,0.0022,0.0029,0.0035,0,0,0,0,0,0,0.0279,0.0266,0.0257,0.0266,0.0245,0.0206,0.0204,0.0185,0.016,0.0157,0.0107,0.0096,0.0076,0.0041,0.0045,0.0011,-0.0019,-0.002,0.0044,0.0051,0.0056,0.0075,0.0002,0,0,0,0,0,0.0292,0.0306,0.0277,0.0285,0.0278,0.0244,0.0233,0.0214,0.0185,0.0174,0.0139,0.01,0.0069,0.0052,0.0018,0.0002,-0.0045,-0.0002,0.0004,0.0009,0.0016,-0.0047,-0.0046,-0.0055,-0.0055,-0.0055,0,0,0.0301,0.0298,0.0302,0.0292,0.0275,0.0274,0.0237,0.0226,0.0229,0.0167,0.0161,0.012,0.0069,0.0052,0.0039,0.0025,-0.0014,0.001,0.0015,0.0019,-0.0046,-0.0045,-0.0044,-0.0055,-0.0055,-0.0055,0,0,0.0327,0.0326,0.0345,0.0335,0.0318,0.0299,0.03,0.0268,0.0258,0.0244,0.0201,0.0166,0.0122,0.0086,0.0063,0.0078,0.0019,0.0068,0.0112,0.0052,0.0052,0.0052,-0.0006,-0.0012,0.0071,0.0071,0.0071,0,0.0339,0.0363,0.0344,0.0357,0.0358,0.0317,0.0332,0.0315,0.0279,0.0275,0.0253,0.0183,0.0137,0.0113,0.0118,0.0091,0.0049,0.0094,0.006,0.0059,0.0057,-0.0002,-0.001,0.0075,0.0075,0.0074,0.0074,0,0.0374,0.0395,0.0404,0.0415,0.0412,0.0418,0.0395,0.0392,0.0373,0.0346,0.0319,0.0255,0.0213,0.0192,0.016,0.0132,0.0103,0.0076,0.0047,0.0064,-0.0001,-0.001,0.0081,0.008,0.0079,0.0078,0,0,0.04,0.0426,0.0432,0.0457,0.0448,0.0453,0.0462,0.0457,0.0468,0.0418,0.0419,0.0352,0.031,0.0281,0.023,0.0178,0.0126,0.0132,0.0127,0.0083,-0.0006,-0.0013,-0.0026,0.0095,0.0094,0.0093,-0.0045,0,0.0437,0.0487,0.0487,0.0534,0.0557,0.0538,0.0555,0.0542,0.052,0.0508,0.0434,0.041,0.0347,0.0332,0.0268,0.0164,0.0104,0.0166,-0.0022,-0.0028,-0.003,-0.0035,0.0089,-0.0053,-0.0055,-0.0057,-0.0058,0,0.0473,0.0508,0.0566,0.0613,0.0622,0.0646,0.0673,0.0681,0.0646,0.0626,0.0577,0.0513,0.0435,0.038,0.0203,0.0247,0.0131,0.0042,0.0034,-0.0008,-0.0053,-0.0076,-0.0076,-0.0075,-0.0074,-0.0072,-0.0071,0,0.0512,0.0566,0.0625,0.0638,0.0675,0.071,0.0731,0.072,0.0744,0.0704,0.0702,0.0589,0.0542,0.0384,0.0198,0.0199,-0.0004,-0.0033,-0.0153,-0.0156,-0.0144,-0.0142,-0.0164,-0.0163,-0.0163,-0.0163,-0.0162,0,0.0553,0.0601,0.0658,0.069,0.0771,0.0773,0.0844,0.0844,0.0848,0.0874,0.0771,0.0755,0.0541,0.04,0.0221,0.0007,0.0004,-0.0147,-0.0192,-0.0106,-0.0099,-0.0151,-0.0148,-0.0168,-0.0167,-0.0166,-0.0165,0,0.0584,0.0617,0.0692,0.0761,0.0795,0.0854,0.0938,0.0974,0.0971,0.1002,0.0995,0.0874,0.0688,0.046,0.0197,0.0047,-0.0163,-0.0241,-0.0128,-0.0164,-0.0283,-0.0274,-0.0389,-0.039,-0.0391,-0.0392,-0.0393,0,0.0601,0.0645,0.0753,0.0811,0.0854,0.0944,0.1003,0.1037,0.1082,0.1073,0.1088,0.0935,0.082,0.0453,0.02,-0.015,-0.02,-0.0314,-0.0304,-0.0274,-0.0306,-0.0295,-0.0284,-0.0395,-0.0396,-0.0396,-0.0396,0,0.0635,0.0679,0.0744,0.0866,0.0954,0.1051,0.1143,0.1185,0.1217,0.1215,0.1166,0.0976,0.0763,0.0466,0.0193,-0.0058,-0.0242,-0.0328,-0.0327,-0.0319,-0.0283,-0.0311,-0.03,-0.04,-0.04,-0.0399,-0.0399,0,0.0663,0.0712,0.0804,0.0912,0.1024,0.1126,0.1173,0.1226,0.127,0.1261,0.1241,0.1013,0.0884,0.0512,0.0262,0.0012,-0.0057,-0.014,-0.015,-0.0149,-0.0042,0.0042,-0.0013,0,0,0,0,0,0.0681,0.0738,0.0839,0.0957,0.1067,0.1143,0.125,0.1283,0.1318,0.1298,0.1278,0.1082,0.0716,0.0559,0.0308,0.0212,-0.0119,-0.0093,-0.0224,-0.0423,-0.0419,-0.0334,0,0,0,0,0,0,0.0693,0.0785,0.0835,0.0975,0.1061,0.119,0.1264,0.1292,0.1286,0.1283,0.1098,0.1014,0.0659,0.0863,0.0304,0.0227,0.0107,-0.026,-0.0266,-0.0426,-0.0422,-0.0418,-0.033,0,0,0,0,0]}]]